THORAD AGENA D DEB, 4971

Orbit data source: Space-Track

THORAD AGENA D DEB, 4971 is space debris in SSO originally from a launch on Wed, 08 Apr 1970 UTC launched from the Air Force Western Test Range (AFWTR). Debris objects in space refer to the collection of defunct objects orbiting the Earth. Examples of debris include non-operational satellites, rocket bodies, and fragments generated from explosions, collisions, or faulty payload assembly.

Loading next visibility...
Identifier
4971, 1970-025GR
Orbit
SSO
Country
Flag of USUS
Related business
Manufacturer
Unknown
Mission
Spacecraft
Bus & Motor
Unknown
Mass
Unknown
Launch date (UTC)
1970-04-08 (56 years ago)
Launch vehicle
Unknown
Launch site
Air Force Western Test Range (AFWTR)
Object type
Payload
Rocket body
Debris
Shape & HBR
Unknown shape, 0.1 m
Radar Cross Section
Small (<0.1 m²)

Expand to show TLE details & history
Last TLE update: 11 hours ago

TLE from 11 hours ago
0 THORAD AGENA D DEB
1 04971U 70025GR  25299.85289966  .00000365  00000-0  12924-2 0  9999
2 04971  99.9156 244.2548 0342411 342.4163  78.1954 12.84716986597725
Epoch: 2025-10-26T20:28Z
TLE epoch observation values (Epoch: 2025-10-26T20:28:10.530Z)
Latitude
62.83313°
Longitude
-118.06308°
Altitude
1,288.035 km
Speed
7.239 km/s
True Right ascension
14h 57m 46s
True Declination
62° 42' 10"
Sunlit
Object was in daylight at epoch
Visualization orbit readout
Latitude
Unknown
Longitude
Unknown
Altitude
Unknown
Speed
Unknown
Apparent Right ascension
Unknown
Apparent Declination
Unknown
Sunlit
N/A
Visualization observer readout
Local Sidereal Time
02:48:09
Azimuth
Unknown
Elevation
Unknown
Doppler factor
Unknown
Orbital elements
Apogee altitude
1,583.55 km
Perigee altitude
1,056.367 km
Semi-major axis
7,698.095 km
Eccentricity
0.03424
Inclination
99.9156°
RAAN
244.2548°
Arg. of periapsis
342.4163°
True anomaly
82.06712°
Mean anomaly
78.1954°
Eccentric anomaly
80.12822°
Mean motion
3.21343 °/min
Orbital period
112.03 mins
BSTAR
0.0012924
Loading maneuver chart data...
Computing Atmospheric mass density...

Documentation

Showing up to 5 results
|